Location: Costa Valle Imagna
(45.8000°N, 9.5000°E)
Time: 06:19:52
(UTC+00:00)

Cosmos 1356 Rocket - Pass Details

Date: 17 February 2020
Orbit: 543 x 598 km, 81.2° (Epoch: 09 April)

Event Time Altitude Azimuth Distance (km) Brightness Sun altitude
Exits shadow 03:58:21 54° 46° (NE) 678 3.9 -25.7°
Drops below altitude 10° 04:01:43 10° 16° (NNE) 1,859 6.3 -25.1°
Sets 04:03:56 0° 14° (NNE) 2,769 7.2 -24.7°
